{"data":{"norad_id":51893,"epoch":"2026-09-19T11:55:02.593920Z","epoch_age_seconds":142893,"freshness":"FRESH","line1":"1 51893U 22022AT  26262.49655780  .00012371  00000+0  72894-3 0  9992","line2":"2 51893  53.2145 207.7715 0001747  60.6476 299.4692 15.11964533252586","mean_motion":15.11964533,"eccentricity":0.0001747,"inclination_deg":53.2145,"raan_deg":207.7715,"arg_perigee_deg":60.6476,"mean_anomaly_deg":299.4692,"bstar":0.00072894,"rev_number":25258,"period_min":95.240329291507,"perigee_km":529.00250420915,"apogee_km":531.41628043863,"semimajor_km":6908.3463923239,"source":"CELESTRAK","updated_at":"2026-09-20T09:00:39.973586Z"}}